CW3518 Weather Reports


time (UTC)temp
F
wind
direction
speed
knots
gust
knots
rain 1hr
in
rain 24hr
in
rain mn
in
humidity
%
barometer
mb
20260901022012 90 133 5.2 6.1 0.00 0.00 0.00 37 1014.6
20260901021012 90 133 4.3 5.2 0.00 0.00 0.00 37 1014.5
20260901020514 90 123 4.3 4.3 0.00 0.00 0.00 37 1014.5
20260901015512 89 123 4.3 6.1 0.00 0.00 0.00 38 1014.3
20260901015013 90 110 4.3 6.1 0.00 0.00 0.00 38 1014.3
20260901014011 90 131 5.2 6.1 0.00 0.00 0.00 37 1014.2
20260901013513 91 133 4.3 5.2 0.00 0.00 0.00 37 1014.1
20260901013011 91 140 5.2 5.2 0.00 0.00 0.00 37 1014.1
20260901012512 91 122 4.3 5.2 0.00 0.00 0.00 37 1014.1
20260901011011 92 131 4.3 6.1 0.00 0.00 0.00 35 1014.0
20260901010511 92 137 6.1 7.0 0.00 0.00 0.00 35 1014.0
20260901005511 93 130 5.2 6.1 0.00 0.00 0.00 34 1014.0
20260901004511 94 137 5.2 7.8 0.00 0.00 0.00 33 1014.0
20260901004011 94 141 4.3 7.0 0.00 0.00 0.00 33 1013.9
20260901003013 95 152 7.0 9.6 0.00 0.00 0.00 32 1013.9
20260901002512 95 145 7.0 9.6 0.00 0.00 0.00 32 1013.9
20260901001511 95 139 7.8 13.9 0.00 0.00 0.00 32 1013.9
20260901001011 96 135 11.3 13.9 0.00 0.00 0.00 32 1013.8
20260901000510 96 142 7.8 11.3 0.00 0.00 0.00 32 1013.9
20260901000011 96 145 7.8 12.2 0.00 0.00 0.00 32 1013.8
20260831235510 96 144 9.6 12.2 0.00 0.00 0.00 31 1013.7
20260831235010 96 174 9.6 13.0 0.00 0.00 0.00 31 1013.8
20260831234540 96 144 10.4 13.0 0.00 0.00 0.00 31 1013.8
20260831233510 96 201 7.8 13.0 0.00 0.00 0.00 30 1013.9
20260831233010 97 170 8.7 13.0 0.00 0.00 0.00 30 1013.8
20260831232540 97 164 13.0 13.9 0.00 0.00 0.00 30 1013.7
20260831231510 97 168 13.0 14.8 0.00 0.00 0.00 30 1013.7
20260831231010 98 154 12.2 14.8 0.00 0.00 0.00 30 1013.7
20260831230510 98 163 9.6 12.2 0.00 0.00 0.00 29 1013.8
20260831230010 98 155 7.0 13.9 0.00 0.00 0.00 30 1013.8
20260831225510 98 184 7.8 13.9 0.00 0.00 0.00 30 1013.9
20260831225009 97 182 6.1 9.6 0.00 0.00 0.00 30 1013.9
20260831224510 97 208 7.8 13.9 0.00 0.00 0.00 30 1014.0
20260831224009 97 191 9.6 14.8 0.00 0.00 0.00 30 1014.0
20260831223510 98 195 13.0 14.8 0.00 0.00 0.00 29 1014.0
20260831223009 97 156 7.8 14.8 0.00 0.00 0.00 30 1014.1
20260831222509 98 134 13.0 13.0 0.00 0.00 0.00 29 1014.0
20260831222009 98 176 4.3 11.3 0.00 0.00 0.00 28 1014.1
20260831221509 98 191 11.3 16.5 0.00 0.00 0.00 28 1014.1
20260831221009 98 151 9.6 16.5 0.00 0.00 0.00 29 1014.2
20260831220509 99 151 12.2 13.0 0.00 0.00 0.00 30 1014.2
20260831220009 99 183 10.4 13.0 0.00 0.00 0.00 29 1014.2
20260831215509 98 135 9.6 13.9 0.00 0.00 0.00 29 1014.2
20260831215009 98 165 6.1 13.9 0.00 0.00 0.00 29 1014.3
20260831214509 98 163 10.4 17.4 0.00 0.00 0.00 28 1014.4
20260831213509 97 134 6.1 13.9 0.00 0.00 0.00 31 1014.4
20260831213008 98 171 9.6 14.8 0.00 0.00 0.00 29 1014.5
20260831212009 98 129 9.6 17.4 0.00 0.00 0.00 28 1014.6
20260831211508 98 178 9.6 17.4 0.00 0.00 0.00 28 1014.5
20260831211008 98 164 11.3 14.8 0.00 0.00 0.00 29 1014.6
20260831210508 98 122 13.0 14.8 0.00 0.00 0.00 27 1014.6
20260831205508 98 210 9.6 13.9 0.00 0.00 0.00 28 1014.8
20260831205008 98 208 8.7 15.6 0.00 0.00 0.00 28 1015.0
20260831204508 98 177 8.7 18.2 0.00 0.00 0.00 27 1015.0
20260831204008 98 154 15.6 18.2 0.00 0.00 0.00 29 1014.9
20260831203008 96 166 9.6 15.6 0.00 0.00 0.00 30 1015.2
20260831202508 96 152 13.0 15.6 0.00 0.00 0.00 31 1015.3
20260831201507 96 156 11.3 16.5 0.00 0.00 0.00 32 1015.4
20260831201007 95 124 11.3 18.2 0.00 0.00 0.00 32 1015.4
20260831200508 96 166 11.3 18.2 0.00 0.00 0.00 32 1015.4
20260831200007 96 175 10.4 18.2 0.00 0.00 0.00 31 1015.4
20260831195007 98 197 10.4 17.4 0.00 0.00 0.00 31 1015.5
20260831194507 96 162 7.8 13.0 0.00 0.00 0.00 31 1015.6
20260831193507 96 117 11.3 17.4 0.00 0.00 0.00 33 1015.8
20260831193007 95 128 8.7 17.4 0.00 0.00 0.00 32 1015.8
20260831192507 95 133 13.0 15.6 0.00 0.00 0.00 32 1015.8
20260831192007 96 176 11.3 13.9 0.00 0.00 0.00 34 1015.8
20260831191508 97 157 13.0 17.4 0.00 0.00 0.00 33 1015.8
20260831191007 96 170 8.7 17.4 0.00 0.00 0.00 33 1016.0
20260831190507 95 194 4.3 17.4 0.00 0.00 0.00 33 1016.1
20260831190007 95 138 17.4 17.4 0.00 0.00 0.00 33 1015.9
20260831185507 95 149 6.1 15.6 0.00 0.00 0.00 33 1016.1
20260831185006 96 217 9.6 15.6 0.00 0.00 0.00 32 1016.2
20260831184006 96 143 11.3 17.4 0.00 0.00 0.00 34 1016.3
20260831183536 94 165 7.0 17.4 0.00 0.00 0.00 33 1016.4
20260831183006 96 130 9.6 16.5 0.00 0.00 0.00 33 1016.3
20260831182506 95 187 8.7 14.8 0.00 0.00 0.00 34 1016.5
20260831182006 95 174 7.8 14.8 0.00 0.00 0.00 34 1016.6
20260831181508 96 178 12.2 19.1 0.00 0.00 0.00 32 1016.6
20260831181007 96 152 9.6 19.1 0.00 0.00 0.00 33 1016.7
20260831180506 95 179 8.7 15.6 0.00 0.00 0.00 34 1016.8
20260831180006 95 212 14.8 15.6 0.00 0.00 0.00 34 1016.9
20260831175506 96 164 9.6 17.4 0.00 0.00 0.00 33 1016.9
20260831174506 95 179 9.6 15.6 0.00 0.00 0.00 34 1017.1
20260831174006 95 197 8.7 15.6 0.00 0.00 0.00 35 1017.1
20260831173507 95 171 11.3 16.5 0.00 0.00 0.00 35 1017.1
20260831173006 95 187 7.8 16.5 0.00 0.00 0.00 35 1017.3
20260831172506 95 202 13.9 15.6 0.00 0.00 0.00 35 1017.2
20260831172006 94 176 13.9 15.6 0.00 0.00 0.00 35 1017.2
20260831171505 94 195 6.1 15.6 0.00 0.00 0.00 35 1017.4
20260831171006 95 170 7.8 15.6 0.00 0.00 0.00 35 1017.4
20260831170506 94 196 4.3 13.9 0.00 0.00 0.00 36 1017.4
20260831165505 94 189 7.8 13.9 0.00 0.00 0.00 36 1017.4
20260831164505 94 194 7.8 15.6 0.00 0.00 0.00 37 1017.5
20260831164005 93 223 12.2 15.6 0.00 0.00 0.00 37 1017.5
20260831163505 93 160 10.4 15.6 0.00 0.00 0.00 38 1017.5
20260831163005 94 216 11.3 17.4 0.00 0.00 0.00 37 1017.5
20260831162507 93 224 11.3 17.4 0.00 0.00 0.00 38 1017.5
20260831162005 93 182 10.4 15.6 0.00 0.00 0.00 38 1017.5
20260831161506 92 194 12.2 13.0 0.00 0.00 0.00 38 1017.5
20260831153510 90 194 9.6 13.9 0.00 0.00 0.00 43 1017.5
20260831152531 90 190 7.8 15.6 0.00 0.00 0.00 43 1017.5
20260831152037 89 199 7.8 15.6 0.00 0.00 0.00 45 1017.5
20260831151531 89 219 10.4 14.8 0.00 0.00 0.00 44 1017.5
20260831150002 88 214 10.4 13.0 0.00 0.00 0.00 48 1017.5
20260831145531 87 210 11.3 14.8 0.00 0.00 0.00 49 1017.5
20260831145003 87 199 10.4 14.8 0.00 0.00 0.00 52 1017.5
20260831144501 86 202 7.0 14.8 0.00 0.00 0.00 54 1017.5
20260831144001 86 213 14.8 14.8 0.00 0.00 0.00 55 1017.5
20260831143010 86 207 7.8 13.0 0.00 0.00 0.00 56 1017.5
20260831142501 85 224 13.0 13.9 0.00 0.00 0.00 56 1017.5
20260831142003 86 229 13.0 13.9 0.00 0.00 0.00 56 1017.4
20260831141501 85 206 9.6 13.0 0.00 0.00 0.00 58 1017.4
20260831141001 85 201 10.4 13.0 0.00 0.00 0.00 58 1017.4
20260831140501 85 191 7.8 13.0 0.00 0.00 0.00 59 1017.3
20260831140031 85 202 7.8 11.3 0.00 0.00 0.00 60 1017.4
20260831135531 84 204 7.8 10.4 0.00 0.00 0.00 62 1017.4
20260831135030 84 189 7.8 9.6 0.00 0.00 0.00 63 1017.3
20260831134530 83 202 6.1 9.6 0.00 0.00 0.00 64 1017.3
20260831134030 83 206 8.7 9.6 0.00 0.00 0.00 64 1017.2
20260831133505 82 196 9.6 9.6 0.00 0.00 0.00 65 1017.2
20260831133001 82 210 3.5 6.1 0.00 0.00 0.00 66 1017.2
20260831132505 81 205 5.2 6.1 0.00 0.00 0.00 67 1017.2
20260831132001 81 154 2.6 6.1 0.00 0.00 0.00 68 1017.1
20260831131500 80 215 5.2 6.1 0.00 0.00 0.00 68 1017.1
20260831131000 80 188 3.5 4.3 0.00 0.00 0.00 69 1017.0
20260831130500 80 206 3.5 4.3 0.00 0.00 0.00 69 1016.8
20260831125500 79 175 2.6 4.3 0.00 0.00 0.00 71 1016.6
20260831125000 78 168 3.5 4.3 0.00 0.00 0.00 72 1016.5
20260831124500 78 141 3.5 4.3 0.00 0.00 0.00 72 1016.4
20260831123959 78 141 2.6 4.3 0.00 0.00 0.00 73 1016.3
20260831123500 78 162 4.3 5.2 0.00 0.00 0.00 72 1016.3
20260831122530 77 144 4.3 5.2 0.00 0.00 0.00 72 1016.1
20260831122000 77 139 3.5 5.2 0.00 0.00 0.00 72 1016.1
20260831121030 78 147 4.3 5.2 0.00 0.00 0.00 72 1016.0
20260831120530 78 182 1.7 3.5 0.00 0.00 0.00 71 1015.8
20260831115530 78 187 2.6 3.5 0.00 0.00 0.00 71 1015.6
20260831115029 78 189 2.6 3.5 0.00 0.00 0.00 71 1015.6
20260831114529 78 169 3.5 3.5 0.00 0.00 0.00 70 1015.6
20260831114029 78 185 3.5 3.5 0.00 0.00 0.00 70 1015.5
20260831113029 78 191 3.5 4.3 0.00 0.00 0.00 70 1015.5
20260831112529 78 191 3.5 5.2 0.00 0.00 0.00 69 1015.5
20260831112029 78 199 4.3 5.2 0.00 0.00 0.00 69 1015.4
20260831110959 79 225 5.2 5.2 0.00 0.00 0.00 68 1015.3
20260831110459 79 197 3.5 4.3 0.00 0.00 0.00 68 1015.3
20260831105959 79 177 4.3 5.2 0.00 0.00 0.00 68 1015.3
20260831105459 79 179 5.2 5.2 0.00 0.00 0.00 68 1015.3
20260831104959 79 193 3.5 5.2 0.00 0.00 0.00 68 1015.3
20260831104529 79 211 4.3 6.1 0.00 0.00 0.00 67 1015.3
20260831104028 79 203 4.3 6.1 0.00 0.00 0.00 67 1015.2
20260831103458 80 224 4.3 5.2 0.00 0.00 0.00 66 1015.1
20260831102958 80 222 5.2 5.2 0.00 0.00 0.00 66 1015.2
20260831102529 80 217 5.2 6.1 0.00 0.00 0.00 66 1015.2
20260831102028 80 231 5.2 6.1 0.00 0.00 0.00 65 1015.2
20260831101528 80 228 4.3 7.0 0.00 0.00 0.00 65 1015.3
20260831101028 81 223 5.2 7.0 0.00 0.00 0.00 64 1015.3
20260831100528 81 211 6.1 7.0 0.00 0.00 0.00 64 1015.2
20260831100028 81 203 7.0 7.8 0.00 0.00 0.00 63 1015.2
20260831095528 81 204 6.1 7.8 0.00 0.00 0.00 63 1015.2
20260831095028 81 195 7.8 9.6 0.00 0.00 0.00 62 1015.1
20260831094528 81 206 5.2 9.6 0.00 0.00 0.00 62 1015.1
20260831094028 82 216 6.1 8.7 0.00 0.00 0.00 62 1015.0
20260831093528 82 211 7.8 9.6 0.00 0.00 0.00 62 1015.0
20260831092958 82 211 7.0 9.6 0.00 0.00 0.00 62 1015.0
20260831092458 82 213 6.1 9.6 0.00 0.00 0.00 61 1015.0
20260831092028 82 210 7.8 8.7 0.00 0.00 0.00 61 1015.0
20260831091528 82 203 8.7 10.4 0.00 0.00 0.00 61 1014.9
20260831091029 82 195 7.0 10.4 0.00 0.00 0.00 61 1014.8
20260831090528 82 210 7.0 10.4 0.00 0.00 0.00 61 1014.8
20260831090027 82 200 8.7 11.3 0.00 0.00 0.00 61 1014.8
20260831085528 82 209 9.6 11.3 0.00 0.00 0.00 60 1014.8
20260831085027 82 216 9.6 11.3 0.00 0.00 0.00 59 1014.7
20260831084027 82 214 8.7 13.0 0.00 0.00 0.00 58 1014.7
20260831083457 82 212 9.6 10.4 0.00 0.00 0.00 58 1014.7
20260831083027 82 211 7.8 10.4 0.00 0.00 0.00 57 1014.7
20260831082457 82 209 7.0 9.6 0.00 0.00 0.00 57 1014.8
20260831081957 81 196 7.0 7.8 0.00 0.00 0.00 57 1014.9
20260831081457 81 204 6.1 9.6 0.00 0.00 0.00 56 1014.9
20260831080527 80 213 7.8 7.8 0.00 0.00 0.00 57 1014.8
20260831080027 80 231 5.2 5.2 0.00 0.00 0.00 58 1014.9
20260831075027 81 219 4.3 5.2 0.00 0.00 0.00 56 1014.9
20260831074027 82 202 4.3 5.2 0.00 0.00 0.00 55 1014.8
20260831073527 82 203 4.3 5.2 0.00 0.00 0.00 55 1014.8
20260831072527 82 202 6.1 6.1 0.00 0.00 0.00 55 1014.7
20260831072027 82 196 5.2 6.1 0.00 0.00 0.00 56 1014.6
20260831071527 82 169 4.3 6.1 0.00 0.00 0.00 56 1014.6
20260831071027 82 174 5.2 6.1 0.00 0.00 0.00 56 1014.7
20260831070527 82 164 5.2 7.0 0.00 0.00 0.00 56 1014.7
20260831065526 82 157 5.2 6.1 0.00 0.00 0.00 55 1014.8
20260831065026 82 167 5.2 6.1 0.00 0.00 0.00 55 1014.8
20260831064457 82 147 6.1 6.1 0.00 0.00 0.00 55 1014.8
20260831064026 83 151 5.2 7.0 0.00 0.00 0.00 54 1014.8
20260831063526 83 149 6.1 7.8 0.00 0.00 0.00 54 1014.8
20260831063026 83 162 5.2 7.8 0.00 0.00 0.00 53 1014.8
20260831062526 84 160 6.1 7.8 0.00 0.00 0.00 53 1014.8
20260831062026 84 158 7.0 7.8 0.00 0.00 0.00 53 1014.8
20260831061526 84 148 6.1 7.8 0.00 0.00 0.00 53 1014.8
20260831061026 84 152 7.0 7.0 0.00 0.00 0.00 52 1014.8
20260831060526 84 150 6.1 7.0 0.00 0.00 0.00 52 1014.9
20260831060026 84 144 5.2 7.0 0.00 0.00 0.00 51 1014.8
20260831055526 84 147 7.0 7.8 0.00 0.00 0.00 51 1014.8
20260831055026 84 154 6.1 7.8 0.00 0.00 0.00 51 1014.7
20260831054456 85 148 6.1 7.8 0.00 0.00 0.00 50 1014.7
20260831054026 85 158 6.1 7.0 0.00 0.00 0.00 50 1014.7
20260831053026 84 206 4.3 7.8 0.00 0.00 0.00 51 1014.8
20260831052455 84 221 5.2 10.4 0.00 0.00 0.00 51 1014.8
20260831052025 85 167 5.2 10.4 0.00 0.00 0.00 49 1014.6
20260831051525 85 135 8.7 9.6 0.00 0.00 0.00 49 1014.6
20260831051025 85 124 7.8 9.6 0.00 0.00 0.00 48 1014.5
20260831050525 85 127 7.8 8.7 0.00 0.00 0.00 48 1014.5
20260831045025 86 136 6.1 7.0 0.00 0.00 0.00 47 1014.4
20260831044525 86 137 6.1 7.0 0.00 0.00 0.00 46 1014.5
20260831044025 87 144 6.1 6.1 0.00 0.00 0.00 45 1014.5
20260831043525 87 136 5.2 6.1 0.00 0.00 0.00 45 1014.6
20260831043025 87 138 5.2 6.1 0.00 0.00 0.00 45 1014.6
20260831042525 87 139 5.2 6.1 0.00 0.00 0.00 44 1014.6
20260831042025 87 139 4.3 7.0 0.00 0.00 0.00 44 1014.6
20260831041525 88 155 6.1 7.0 0.00 0.00 0.00 44 1014.6
20260831041025 88 153 5.2 6.1 0.00 0.00 0.00 43 1014.7
20260831040524 88 164 5.2 6.1 0.00 0.00 0.00 43 1014.6
20260831035025 88 154 5.2 6.1 0.00 0.00 0.00 43 1014.5
20260831034524 87 139 5.2 6.1 0.00 0.00 0.00 43 1014.4
20260831033524 88 138 6.1 6.1 0.00 0.00 0.00 42 1014.4
20260831032524 88 137 6.1 6.1 0.00 0.00 0.00 41 1014.5
20260831032024 88 143 6.1 7.0 0.00 0.00 0.00 41 1014.5
20260831031524 88 143 5.2 7.8 0.00 0.00 0.00 41 1014.4
20260831031024 88 133 6.1 7.8 0.00 0.00 0.00 40 1014.3
20260831030524 89 126 6.1 7.0 0.00 0.00 0.00 40 1014.2
20260831030024 88 123 6.1 7.0 0.00 0.00 0.00 40 1014.2
20260831025524 88 124 6.1 6.1 0.00 0.00 0.00 40 1014.1
20260831025024 89 133 5.2 6.1 0.00 0.00 0.00 39 1014.1
20260831024524 89 129 6.1 6.1 0.00 0.00 0.00 39 1014.1
20260831024024 89 121 5.2 6.1 0.00 0.00 0.00 38 1014.1
20260831023026 89 129 3.5 6.1 0.00 0.00 0.00 37 1013.9
20260831022524 90 141 4.3 6.1 0.00 0.00 0.00 37 1013.9